Weather History for Tunica, MS

Change the Weather History Date:

Thursday, October 25, 2012

  Actual Average (KMEM) Record (KMEM)
Temperature  
Mean Temperature 70 °F 61 °F  
Max Temperature 80 °F 71 °F 86 °F (2000)
Min Temperature 60 °F 51 °F 31 °F (1965)
Degree Days  
Heating Degree Days 0 6  
Month to date heating degree days 80  
Since 1 July heating degree days 91  
Cooling Degree Days 5 2  
Month to date cooling degree days 83  
Year to date cooling degree days 2234  
Growing Degree Days 20 (Base 50)    
Moisture  
Dew Point 60 °F    
Average Humidity 73    
Maximum Humidity 94    
Minimum Humidity 48    
Precipitation  
Precipitation 0.00 in 0.14 in 1.61 in (1975)
Month to date precipitation 3.16  
Year to date precipitation 41.63  
Snow  
Snow 0.00 in 0.00 in 0.00 in (2002)
Month to date snowfall 0.0  
Since 1 July snowfall 0.0  
Since 1 September snowfall 0.0  
Snow Depth -    
Sea Level Pressure  
Sea Level Pressure 29.97 in    
Wind  
Wind Speed 9 mph (SSE)    
Max Wind Speed 16 mph    
Max Gust Speed 22 mph    
Visibility 10 miles    
Events      
T = Trace of Precipitation, MM = Missing Value Source: NWS Daily Summary

Daily Weather History Graph

Daily Weather History Graph

Search for Another Location

Airport:

Trip Planner

Search our weather history database for the weather conditions in past years. The results will help you decide how hot, cold, wet, or windy it might be!

Date:

Astronomy

Oct. 25, 2012 Rise Set
Actual Time 7:16 AM CDT 6:14 PM CDT
Civil Twilight 6:50 AM CDT 6:40 PM CDT
Nautical Twilight 6:20 AM CDT 7:09 PM CDT
Astronomical Twilight 5:51 AM CDT 7:38 PM CDT
Moon 3:53 PM CDT (10/25) 3:21 AM CDT (10/25)
Length of Visible Light 11h 49m
Length of Day
10h 58m
Waxing Gibbous, 84% of the Moon is Illuminated
Oct 25
Waxing Gibbous
Oct 29
Full
Nov 6
Last Quarter
Nov 13
New
Nov 20
First Quarter

Hourly Weather History & Observations

Time (CDT) Temp. Heat Index Dew Point Humidity Pressure Visibility Wind Dir Wind Speed Gust Speed Precip Events Conditions
12:15 AM 64.4 °F - 59.0 °F 83% 29.99 in 10.0 mi SSE 9.2 mph - N/A   Clear
12:35 AM 62.6 °F - 59.0 °F 88% 29.99 in 10.0 mi SSE 8.1 mph - N/A   Clear
12:55 AM 64.4 °F - 59.0 °F 83% 29.98 in 10.0 mi SSE 8.1 mph - N/A   Clear
1:15 AM 62.6 °F - 59.0 °F 88% 29.99 in 10.0 mi SE 9.2 mph - N/A   Clear
1:35 AM 64.4 °F - 59.0 °F 83% 29.98 in 10.0 mi SE 10.4 mph - N/A   Clear
1:55 AM 64.4 °F - 59.0 °F 83% 29.98 in 10.0 mi SSE 9.2 mph - N/A   Clear
2:15 AM 64.4 °F - 59.0 °F 83% 29.97 in 10.0 mi SSE 9.2 mph - N/A   Clear
2:35 AM 64.4 °F - 59.0 °F 83% 29.96 in 10.0 mi SSE 9.2 mph - N/A   Clear
2:55 AM 64.4 °F - 59.0 °F 83% 29.96 in 10.0 mi SSE 8.1 mph - N/A   Clear
3:15 AM 64.4 °F - 59.0 °F 83% 29.96 in 10.0 mi SSE 10.4 mph - N/A   Clear
3:35 AM 62.6 °F - 59.0 °F 88% 29.95 in 10.0 mi SSE 9.2 mph - N/A   Clear
3:55 AM 62.6 °F - 59.0 °F 88% 29.95 in 10.0 mi SSE 8.1 mph - N/A   Clear
4:15 AM 62.6 °F - 59.0 °F 88% 29.95 in 10.0 mi SSE 6.9 mph - N/A   Clear
4:35 AM 62.6 °F - 57.2 °F 82% 29.96 in 10.0 mi South 6.9 mph - N/A   Clear
4:55 AM 60.8 °F - 57.2 °F 88% 29.95 in 10.0 mi SSE 6.9 mph - N/A   Clear
5:15 AM 60.8 °F - 57.2 °F 88% 29.95 in 10.0 mi SSE 6.9 mph - N/A   Clear
5:35 AM 60.8 °F - 57.2 °F 88% 29.96 in 10.0 mi South 6.9 mph - N/A   Clear
5:55 AM 60.8 °F - 57.2 °F 88% 29.97 in 10.0 mi SSE 8.1 mph - N/A   Clear
6:15 AM 60.8 °F - 57.2 °F 88% 29.97 in 10.0 mi SSE 6.9 mph - N/A   Clear
7:35 AM 60.8 °F - 57.2 °F 88% 30.00 in 10.0 mi SSE 4.6 mph - N/A   Clear
7:55 AM 60.8 °F - 59.0 °F 94% 30.01 in 7.0 mi SSE 5.8 mph - N/A   Scattered Clouds
8:15 AM 62.6 °F - 59.0 °F 88% 30.01 in 10.0 mi South 5.8 mph - N/A   Overcast
8:35 AM 62.6 °F - 59.0 °F 88% 30.02 in 10.0 mi SSE 6.9 mph - N/A   Overcast
8:55 AM 64.4 °F - 59.0 °F 83% 30.02 in 10.0 mi SSE 9.2 mph - N/A   Overcast
9:15 AM 64.4 °F - 60.8 °F 88% 30.02 in 10.0 mi South 6.9 mph - N/A   Mostly Cloudy
9:35 AM 68.0 °F - 60.8 °F 78% 30.02 in 10.0 mi SSE 8.1 mph - N/A   Scattered Clouds
9:55 AM 69.8 °F - 60.8 °F 73% 30.02 in 10.0 mi South 8.1 mph - N/A   Scattered Clouds
10:15 AM 69.8 °F - 62.6 °F 78% 30.03 in 10.0 mi South 6.9 mph - N/A   Mostly Cloudy
10:35 AM 69.8 °F - 62.6 °F 78% 30.03 in 10.0 mi South 6.9 mph - N/A   Mostly Cloudy
10:55 AM 71.6 °F - 62.6 °F 73% 30.03 in 10.0 mi SSW 8.1 mph - N/A   Mostly Cloudy
11:15 AM 73.4 °F - 62.6 °F 69% 30.03 in 10.0 mi South 11.5 mph - N/A   Scattered Clouds
11:35 AM 75.2 °F - 64.4 °F 69% 30.02 in 10.0 mi South 11.5 mph - N/A   Clear
11:55 AM 77.0 °F - 62.6 °F 61% 30.01 in 10.0 mi South 11.5 mph 17.3 mph N/A   Scattered Clouds
12:15 PM 78.8 °F - 62.6 °F 57% 30.00 in 10.0 mi South 11.5 mph 18.4 mph N/A   Scattered Clouds
12:35 PM 78.8 °F - 62.6 °F 57% 29.99 in 10.0 mi South 12.7 mph 21.9 mph N/A   Scattered Clouds
12:55 PM 78.8 °F - 62.6 °F 57% 29.98 in 10.0 mi SSW 16.1 mph 21.9 mph N/A   Clear
1:15 PM 78.8 °F - 60.8 °F 54% 29.97 in 10.0 mi South 13.8 mph 20.7 mph N/A   Scattered Clouds
1:35 PM 80.6 °F 81.8 °F 62.6 °F 54% 29.96 in 10.0 mi South 16.1 mph - N/A   Clear
1:55 PM 80.6 °F 81.5 °F 60.8 °F 51% 29.96 in 10.0 mi SSW 13.8 mph 18.4 mph N/A   Clear
2:15 PM 80.6 °F 81.5 °F 60.8 °F 51% 29.95 in 10.0 mi SW 15.0 mph - N/A   Clear
2:35 PM 80.6 °F 81.5 °F 60.8 °F 51% 29.94 in 10.0 mi South 11.5 mph 16.1 mph N/A   Scattered Clouds
2:55 PM 80.6 °F 81.5 °F 60.8 °F 51% 29.94 in 10.0 mi South 12.7 mph - N/A   Scattered Clouds
3:15 PM 80.6 °F 81.5 °F 60.8 °F 51% 29.94 in 10.0 mi South 12.7 mph 17.3 mph N/A   Scattered Clouds
3:35 PM 80.6 °F 81.1 °F 59.0 °F 48% 29.94 in 10.0 mi South 9.2 mph 18.4 mph N/A   Clear
3:55 PM 80.6 °F 81.1 °F 59.0 °F 48% 29.93 in 10.0 mi South 10.4 mph 17.3 mph N/A   Scattered Clouds
4:15 PM 80.6 °F 81.1 °F 59.0 °F 48% 29.93 in 10.0 mi SSW 12.7 mph - N/A   Scattered Clouds
4:35 PM 80.6 °F 81.1 °F 59.0 °F 48% 29.94 in 10.0 mi South 10.4 mph - N/A   Clear
4:55 PM 80.6 °F 81.1 °F 59.0 °F 48% 29.94 in 10.0 mi South 12.7 mph - N/A   Scattered Clouds
5:35 PM 77.0 °F - 59.0 °F 54% 29.94 in 10.0 mi SSE 9.2 mph - N/A   Clear
5:55 PM 73.4 °F - 59.0 °F 61% 29.94 in 10.0 mi South 8.1 mph - N/A   Clear
6:15 PM 73.4 °F - 59.0 °F 61% 29.93 in 10.0 mi SSE 10.4 mph - N/A   Clear
6:35 PM 71.6 °F - 60.8 °F 69% 29.94 in 10.0 mi South 5.8 mph - N/A   Clear
6:55 PM 69.8 °F - 59.0 °F 68% 29.95 in 10.0 mi South 6.9 mph - N/A   Clear
7:15 PM 68.0 °F - 59.0 °F 73% 29.95 in 10.0 mi SSE 6.9 mph - N/A   Clear
7:35 PM 69.8 °F - 60.8 °F 73% 29.95 in 10.0 mi SSE 8.1 mph - N/A   Clear
7:55 PM 68.0 °F - 59.0 °F 73% 29.94 in 10.0 mi SSE 6.9 mph - N/A   Clear
8:15 PM 68.0 °F - 59.0 °F 73% 29.95 in 10.0 mi SSE 4.6 mph - N/A   Clear
8:35 PM 66.2 °F - 59.0 °F 78% 29.94 in 10.0 mi SE 6.9 mph - N/A   Clear
8:55 PM 68.0 °F - 60.8 °F 78% 29.95 in 10.0 mi SSE 5.8 mph - N/A   Clear
9:15 PM 68.0 °F - 60.8 °F 78% 29.96 in 10.0 mi SSE 4.6 mph - N/A   Clear
9:35 PM 68.0 °F - 60.8 °F 78% 29.95 in 10.0 mi SSE 5.8 mph - N/A   Clear
9:55 PM 64.4 °F - 59.0 °F 83% 29.97 in 10.0 mi SSE 5.8 mph - N/A   Clear
10:15 PM 64.4 °F - 59.0 °F 83% 29.97 in 10.0 mi SE 5.8 mph - N/A   Clear
10:55 PM 66.2 °F - 59.0 °F 78% 29.98 in 10.0 mi SE 4.6 mph - N/A   Scattered Clouds
11:15 PM 64.4 °F - 59.0 °F 83% 29.98 in 10.0 mi SE 4.6 mph - N/A   Scattered Clouds
11:35 PM 64.4 °F - 60.8 °F 88% 29.98 in 10.0 mi SSE 4.6 mph - N/A   Scattered Clouds